This demonstration page uses our WeatherBlox Daily Observations layout. Learn more.

Left ArrowRight Arrow

39.29038, -76.61219

Hourly Observations for April 11, 2022

Temp ( °F °C ) Dew Point ( °F °C ) Humidity (%) Winds ( mph kmh ) Pressure ( in mb ) Visibility ( mi km ) Precip ( " mm )
12:54 am 00:54 Clear 37 2.8 30 -1.1 76 76 Calm 30.07 1018 10 16 0.00 0.00
1:54 am 01:54 Clear 36 2.2 30 -1.1 79 79 Calm 30.09 1019 10 16 0.00 0.00
2:54 am 02:54 Clear 34 1.1 29 -1.7 82 82 W 3 6 30.10 1019 10 16 0.00 0.00
3:54 am 03:54 Mostly Clear 33 0.6 29 -1.7 85 85 Calm 30.11 1020 10 16 0.00 0.00
4:54 am 04:54 Clear 34 1.1 29 -1.7 82 82 Calm 30.14 1021 10 16 0.00 0.00
5:54 am 05:54 Clear 33 0.6 29 -1.7 85 85 Calm 30.15 1021 10 16 0.00 0.00
6:54 am 06:54 Mostly Sunny 35 1.7 29 -1.7 78 78 Calm 30.16 1021 10 16 0.00 0.00
7:54 am 07:54 Mostly Sunny 38 3.3 32 0 79 79 W 3 6 30.16 1022 10 16 0.00 0.00
8:54 am 08:54 Mostly Sunny 47 8.3 30 -1.1 52 52 Calm 30.17 1022 10 16 0.00 0.00
9:54 am 09:54 Mostly Cloudy 50 10 27 -2.8 41 41 SE 3 6 30.18 1022 10 16 0.00 0.00
10:54 am 10:54 Mostly Cloudy 53 11.7 29 -1.7 40 40 SE 7 11 30.16 1021 10 16 0.00 0.00
11:54 am 11:54 Mostly Cloudy 56 13.3 31 -0.6 39 39 VRB 5 7 30.16 1021 10 16 0.00 0.00
12:54 pm 12:54 Mostly Cloudy 59 15 32 0 36 36 ESE 9 15 30.12 1020 10 16 0.00 0.00
1:54 pm 13:54 Mostly Cloudy 59 15 33 0.6 38 38 ESE 13 20 30.11 1020 10 16 0.00 0.00
2:54 pm 14:54 Sunny 61 16.1 33 0.6 35 35 SSE 10 17 30.09 1019 10 16 0.00 0.00
3:54 pm 15:54 Mostly Cloudy 63 17.2 34 1.1 34 34 S 10 17 30.07 1018 10 16 0.00 0.00
4:54 pm 16:54 Mostly Cloudy 62 16.7 35 1.7 37 37 SSE 8 13 30.05 1018 10 16 0.00 0.00
5:54 pm 17:54 Mostly Cloudy 61 16.1 37 2.8 41 41 SE 13 20 30.04 1017 10 16 0.00 0.00
6:54 pm 18:54 Mostly Cloudy 57 13.9 38 3.3 49 49 SSE 9 15 30.04 1017 10 16 0.00 0.00
7:54 pm 19:54 Mostly Cloudy 55 12.8 38 3.3 53 53 SSE 6 9 30.04 1017 10 16 0.00 0.00
8:54 pm 20:54 Mostly Cloudy 53 11.7 39 3.9 59 59 SE 6 9 30.04 1017 10 16 0.00 0.00
9:54 pm 21:54 Mostly Cloudy 52 11.1 40 4.4 64 64 SE 5 7 30.05 1018 10 16 0.00 0.00
10:54 pm 22:54 Mostly Cloudy 53 11.7 41 5 64 64 Calm 30.04 1017 10 16 0.00 0.00
11:54 pm 23:54 Cloudy 52 11.1 42 5.6 69 69 Calm 30.03 1017 10 16 0.00 0.00

Powered by AerisWeather